Location: Arthez
(43.0833°N, 0.2500°W)
Time: 07:07:29
(UTC+00:00)

Feng Yun 1-1 Rocket - Pass Details

Date: 23 October 2021
Orbit: 830 x 933 km, 99.2° (Epoch: 02 December)

Event Time Altitude Azimuth Distance (km) Brightness Sun altitude
Rises 18:24:21 0° 157° (SSE) 3,411 7.1 -15.0°
Reaches altitude 10° 18:26:41 10° 155° (SSE) 2,492 6.4 -15.5°
Maximum altitude 18:32:12 72° 73° (ENE) 923 4.2 -16.5°
Drops below altitude 10° 18:37:55 10° 349° (N) 2,578 6.8 -17.5°
Sets 18:40:22 0° 348° (NNW) 3,537 7.6 -18.0°
